Find OneWeb SL0024

NORAD ID: 45137 Int'l Des: 2020-008 Owner: ONEWEB Country: UK Constellation: oneweb operational
LEOCIRCULARPOLARONEWEB_TYPE

实时位置

正在加载3D地球...

关于 OneWeb SL0024

正在加载描述...

即将过境

Passes for default location (London). Set your location on the main map for personalized predictions.

高度历史

Loading altitude history...

两行轨道根数

1 45137U 20008G 26123.52812207 .00000459 00000-0 12774-2 0 9992
2 45137 87.8866 45.1403 0001900 76.6554 283.4785 13.10375148302392
Epoch: May 3, 2026 • Age: 11 hours

当前状态

高度 1247.8 km
速度 7.23 km/s
星下点 -65.52°S, 171.49°W
发射日期 Feb 6, 2020
运行时间 6.2 years
类型 internet

技术详情

分类 Payload
质量 148.00 kg
干质量 140.00 kg
总质量 148.00 kg
长度 1.30 m
直径 1.00 m
跨度 5.00 m
形状 Trapezoid+2 pan
制造商 ONEWUS
平台类型 ARROW
阶段状态 In Orbit
所有者/国家 ONEWEB/UK

Most Searched